Location: New Paltz
(41.7500°N, 74.0833°W)
Time: 07:35:42
(UTC-05:00)

Daily predictions for brighter satellites

Satellite Brightness Start Highest point End
(mag) Time Altitude Azimuth Time Altitude Azimuth Time Altitude Azimuth
SKYMED 2 3.6 18:02:51 10° NNE 18:07:13 84° ESE 18:11:34 10° SSW
Cosmos 44 4.2 18:03:27 10° NW 18:07:42 47° WSW 18:11:49 10° S
COSMOS 2428 4.0 18:03:38 10° N 18:07:52 21° NE 18:12:06 10° E
METEOR-M 4.3 18:04:19 10° SE 18:09:28 52° ENE 18:14:39 10° N
Cosmos 1536 4.3 18:12:45 10° SE 18:15:23 17° E 18:18:02 10° NE
H-2A R/B 4.3 18:13:55 10° ESE 18:16:13 16° ENE 18:18:33 10° NNE
Meteor 1-25 Rocket 4.4 18:13:25 10° SSW 18:19:01 81° W 18:24:45 10° N
Okean 1 3.3 18:15:32 10° N 18:19:37 72° E 18:23:39 10° SSE
Cosmos 1812 3.1 18:16:33 10° NNW 18:20:23 68° W 18:24:13 10° S
Cosmos 1633 3.1 18:17:42 10° SSE 18:21:06 36° E 18:24:31 10° NNE
Cosmos 1536 Rocket 3.6 18:17:52 10° N 18:22:19 63° E 18:26:45 10° SSE
Cosmos 1818 3.6 18:20:03 10° SSW 18:25:30 87° WNW 18:31:00 10° NNE
Cosmos 407 Rocket 3.8 18:21:38 10° SSW 18:26:52 76° WNW 18:32:13 10° NNE
Cosmos 2360 Rocket 2.3 18:22:14 10° NNW 18:27:48 57° ENE 18:33:21 10° SE
Cosmos 2219 Rocket 3.7 18:25:23 10° N 18:29:05 18° NE 18:31:48 13° E
Cosmos 2219 4.1 18:24:55 10° SSE 18:29:35 26° ESE 18:34:17 10° NE
Cosmos 676 Rocket 4.0 18:26:13 10° SSW 18:31:24 84° ESE 18:36:39 10° NNE
Meteor 1-11 Rocket 3.9 18:33:19 10° S 18:38:56 55° E 18:44:42 10° NNE
DELTA 2 R/B (1) 4.2 18:40:34 10° W 18:46:01 53° SSW 18:50:44 14° SE
Cosmos 1140 Rocket 3.4 18:41:24 10° S 18:46:29 69° ESE 18:51:37 10° NNE
Resurs 01 Rocket 1.8 18:45:12 10° SE 18:49:26 48° ENE 18:53:42 10° N
Cosmos 1602 3.6 18:45:36 10° S 18:49:28 82° E 18:53:23 10° N
Cosmos 1300 Rocket 3.5 18:46:35 10° S 18:50:59 78° E 18:55:26 10° N
Cosmos 614 Rocket 3.9 18:49:23 10° S 18:54:22 61° ESE 18:59:22 10° NNE
Cosmos 1833 4.3 18:50:47 10° SSW 18:56:30 80° WNW 19:02:12 10° NNE
Abrixas rocket 3.5 18:53:46 10° SSW 18:56:35 25° SE 18:56:51 25° SE
ALOS 2.2 18:52:45 10° SSE 18:57:24 79° ENE 19:02:05 10° N
Cosmos 2181 Rocket 4.0 18:52:03 10° N 18:58:20 90° WNW 19:04:41 10° S
Spot 2 Rocket 3.4 18:56:48 10° SSE 19:01:47 65° ENE 19:06:49 10° N
USA 229 DEB 4.1 18:55:52 10° NNW 19:02:43 47° NE 19:07:02 23° ESE
USA 229 4.1 18:55:58 10° NNW 19:02:48 47° NE 19:07:06 23° ESE
Cosmos 2333 Rocket 3.3 18:58:09 10° N 19:02:54 26° NE 19:04:11 24° ENE
SL-16 R/B 4.3 18:59:26 10° NW 19:04:15 29° WSW 19:09:02 10° SSW
Cosmos 2208 Rocket 4.1 18:59:31 10° NNW 19:04:55 59° ENE 19:09:51 12° SE
FREGAT/IRIS 4.2 19:02:15 10° S 19:05:09 39° W 19:08:06 10° NNW
Helios 1A 3.5 19:04:17 30° ESE 19:05:32 37° ENE 19:09:22 10° N
Cosmos 1340 3.8 19:03:07 10° NNW 19:06:46 46° W 19:10:23 10° SSW
NOSS 8 (E) 4.4 19:03:25 10° SW 19:06:52 87° NW 19:09:17 20° NE
Resurs 1-3 3.5 19:02:58 10° SSE 19:07:18 63° ENE 19:11:39 10° N
Cosmos 2074 Rocket 3.9 19:07:19 10° S 19:13:28 63° E 19:19:40 10° NNE
Cosmos 1850 Rocket 3.9 19:08:20 10° SSW 19:13:37 77° ESE 19:18:58 10° NNE
Cosmos 2184 Rocket 3.9 19:10:12 10° S 19:16:25 64° E 19:22:36 10° NNE
Helios 1B rocket 2.7 19:14:02 10° NNE 19:18:13 44° ESE 19:22:00 10° S
Envisat 3.8 19:18:30 30° ENE 19:18:30 30° ENE 19:22:39 10° N
FengYun 1-2 T 4.4 19:14:02 10° S 19:19:29 72° WSW 19:25:01 10° NNW
NOSS 8 (H) 4.3 19:17:35 10° SW 19:20:57 86° NW 19:21:51 47° NNE
Intercosmos 24 4.3 19:16:58 10° S 19:21:07 69° E 19:27:05 10° NNE
USA 186 4.3 19:24:36 11° N 19:24:36 11° N 19:24:42 10° N
Okean 2 3.6 19:18:14 10° N 19:22:00 46° ENE 19:22:00 46° ENE
Tiangong 2 3.9 19:24:02 10° WSW 19:25:17 12° SW 19:26:31 10° SSW
Okean 1 Rocket 3.7 19:21:25 10° SSW 19:25:49 58° W 19:30:17 10° N
SAR-Lupe-1 4.1 19:26:18 60° NE 19:26:18 60° NE 19:29:30 10° N
Meteor 1-5 Rocket 4.2 19:20:42 10° S 19:26:37 72° E 19:32:31 10° NNE
Genesis I 3.2 19:23:12 10° NW 19:27:09 82° WSW 19:28:05 51° SSE
FENGYUN 3A 4.2 19:22:02 10° S 19:27:22 60° W 19:32:45 10° NNW
Cosmos 1892 Rocket 4.3 19:26:16 10° N 19:29:15 36° NE 19:29:15 36° NE
SAR-Lupe-4 3.4 19:30:26 71° S 19:30:47 89° WSW 19:34:23 10° NNW
Nadezhda 3 Rocket 4.2 19:29:58 10° N 19:35:53 46° ENE 19:36:38 44° E
Gbstr 26 Del rocket 2.9 19:32:48 10° WSW 19:36:32 58° NNW 19:36:52 55° N
GEOS 3 Rocket 4.0 19:39:42 14° NNE 19:44:07 62° NW 19:49:19 10° SW
Cosmos 2285 Rocket 3.9 19:38:12 10° NNW 19:44:41 82° ENE 19:47:50 33° SSE
CZ-2D R/B 3.8 19:43:32 35° SSW 19:44:52 56° W 19:48:39 10° NNW
Cosmos 2154 Rocket 4.0 19:39:13 10° SSE 19:45:23 57° E 19:51:35 10° NNE
Cosmos 1025 Rocket 3.5 19:41:09 10° NNW 19:45:29 62° W 19:48:41 18° S
Cosmos 405 Rocket 4.1 19:42:43 10° N 19:45:01 32° N 19:45:01 32° N
GPS 2-04 Rocket1 4.2 19:43:32 10° SW 19:46:29 29° SSW 19:46:29 29° SSW
H-2A R/B 4.3 19:46:49 10° SSW 19:50:13 34° W 19:53:40 10° NNW
Meteor 2-13 Rocket 4.3 19:45:16 10° S 19:51:18 80° E 19:57:25 10° N
COSMOS 2428 3.0 19:47:00 10° NNW 19:52:39 66° WSW 19:55:38 28° S
Cosmos 2333 4.3 19:48:19 10° NNW 19:54:03 74° WSW 19:56:21 37° S
Cosmos 2237 Rocket 2.8 19:51:21 10° NNW 19:55:53 43° NNE 19:55:53 43° NNE
NOSS 0 Rocket 3.7 20:02:14 10° NNW 20:08:24 78° ENE 20:08:24 78° ENE
Cosmos 2219 4.2 20:07:56 10° SW 20:13:27 46° WNW 20:18:59 10° NNE
Cosmos 2219 Rocket 2.2 20:08:05 10° NNW 20:13:35 78° W 20:13:35 78° W
Resurs 01 Rocket 4.5 20:23:31 10° SW 20:26:10 16° W 20:28:49 10° NW
SL-16 R/B 3.9 20:25:01 10° N 20:27:20 23° N 20:27:20 23° N
Cosmos 2333 Rocket 3.2 20:41:53 10° NNW 20:46:14 44° WNW 20:46:14 44° WNW
NOSS 3-1 (A) 4.4 20:59:05 10° NW 21:04:58 59° NNW 21:04:58 59° NNW
ATLAS 2AS CENTAUR R/B 4.2 21:05:12 10° NNW 21:10:18 31° N 21:10:18 31° N
